| time (UTC) | temp C | wind direction | speed KPH | gust KPH | rain 1hr cm | rain 24hr cm | rain mn cm | humidity % | barometer mb |
| 20260503225003 | 29 | 25 | 0.0 | 3.2 | 0.00 | 0.00 | 0.00 | 67 | |
| 20260503224003 | 29 | 0 | 0.0 | 4.8 | 0.00 | 0.00 | 0.00 | 67 | |
| 20260503223002 | 30 | 90 | 0.0 | 3.2 | 0.00 | 0.00 | 0.00 | 68 | |
| 20260503222002 | 30 | 90 | 0.0 | 3.2 | 0.00 | 0.00 | 0.00 | 68 | |
| 20260503221003 | 29 | 55 | 0.0 | 1.6 | 0.00 | 0.00 | 0.00 | 67 | |
| 20260503220003 | 29 | 35 | 0.0 | 3.2 | 0.00 | 0.00 | 0.00 | 67 | |
| 20260503215003 | 28 | 20 | 0.0 | 3.2 | 0.00 | 0.00 | 0.00 | 67 | |
| 20260503214003 | 100 | 55 | 1.6 | 4.8 | 0.00 | 0.00 | 0.00 | 67 | |
| 20260503213003 | 28 | 115 | 0.0 | 4.8 | 0.00 | 0.00 | 0.00 | 67 | |
| 20260503212003 | 28 | 35 | 0.0 | 3.2 | 0.00 | 0.00 | 0.00 | 66 | |
| 20260503211002 | 27 | 70 | 0.0 | 4.8 | 0.00 | 0.00 | 0.00 | 65 | |
| 20260503210003 | 27 | 360 | 0.0 | 6.4 | 0.00 | 0.00 | 0.00 | 65 | |
| 20260503205003 | 27 | 30 | 1.6 | 4.8 | 0.00 | 0.00 | 0.00 | 65 | |
| 20260503204003 | 27 | 60 | 0.0 | 6.4 | 0.00 | 0.00 | 0.00 | 65 | |
| 20260503203003 | 26 | 25 | 3.2 | 4.8 | 0.00 | 0.00 | 0.00 | 64 | |
| 20260503202004 | 26 | 20 | 1.6 | 4.8 | 0.00 | 0.00 | 0.00 | 64 | |
| 20260503201002 | 26 | 30 | 0.0 | 4.8 | 0.00 | 0.00 | 0.00 | 64 | |
| 20260503200003 | 26 | 80 | 0.0 | 4.8 | 0.00 | 0.00 | 0.00 | 64 | |
| 20260503195003 | 26 | 15 | 0.0 | 3.2 | 0.00 | 0.00 | 0.00 | 64 | |
| 20260503194003 | 25 | 25 | 1.6 | 4.8 | 0.00 | 0.00 | 0.00 | 63 | |
| 20260503193004 | 25 | 85 | 0.0 | 4.8 | 0.00 | 0.00 | 0.00 | 63 | |
| 20260503192003 | 25 | 50 | 0.0 | 3.2 | 0.00 | 0.00 | 0.00 | 63 | |
| 20260503191003 | 24 | 35 | 3.2 | 6.4 | 0.00 | 0.00 | 0.00 | 63 | |
| 20260503190004 | 24 | 55 | 0.0 | 6.4 | 0.00 | 0.00 | 0.00 | 63 | |
| 20260503185002 | 23 | 25 | 0.0 | 6.4 | 0.00 | 0.00 | 0.00 | 62 | |
| 20260503184003 | 23 | 70 | 0.0 | 8.0 | 0.00 | 0.00 | 0.00 | 62 | |
| 20260503183003 | 23 | 50 | 0.0 | 6.4 | 0.00 | 0.00 | 0.00 | 62 | |
| 20260503182003 | 23 | 0 | 0.0 | 4.8 | 0.00 | 0.00 | 0.00 | 62 | |
| 20260503181003 | 22 | 40 | 0.0 | 6.4 | 0.00 | 0.00 | 0.00 | 61 | |
| 20260503180004 | 21 | 40 | 1.6 | 6.4 | 0.00 | 0.00 | 0.00 | 60 | |
| 20260503175003 | 21 | 50 | 0.0 | 6.4 | 0.00 | 0.00 | 0.00 | 60 | |
| 20260503174002 | 21 | 55 | 0.0 | 6.4 | 0.00 | 0.00 | 0.00 | 60 | |
| 20260503173003 | 20 | 360 | 0.0 | 3.2 | 0.00 | 0.00 | 0.00 | 59 | |
| 20260503172003 | 20 | 50 | 0.0 | 3.2 | 0.00 | 0.00 | 0.00 | 59 | |
| 20260503171003 | 20 | 30 | 0.0 | 6.4 | 0.00 | 0.00 | 0.00 | 59 | |
| 20260503151003 | 16 | 45 | 0.0 | 6.4 | 0.00 | 0.00 | 0.00 | 55 | |
| 20260503131003 | 15 | 50 | 0.0 | 1.6 | 0.00 | 0.00 | 0.00 | 54 | |
| 20260503081002 | 14 | 45 | 0.0 | 4.8 | 0.00 | 0.00 | 0.00 | 54 | |
| 20260503072003 | 13 | 50 | 0.0 | 0.0 | 0.00 | 0.00 | 0.00 | 53 | |
| 20260503071002 | 13 | 50 | 0.0 | 0.0 | 0.00 | 0.00 | 0.00 | 53 | |
| 20260503055003 | 13 | 360 | 0.0 | 1.6 | 0.00 | 0.00 | 0.00 | 54 | |
| 20260503054003 | 13 | 0 | 0.0 | 1.6 | 0.00 | 0.00 | 0.00 | 53 | |
| 20260503053002 | 13 | 0 | 0.0 | 0.0 | 0.00 | 0.00 | 0.00 | 53 | |
| 20260503052003 | 13 | 360 | 0.0 | 0.0 | 0.00 | 0.00 | 0.00 | 53 | |
| 20260503051003 | 13 | 0 | 0.0 | 0.0 | 0.00 | 0.00 | 0.00 | 53 | |
| 20260503050003 | 13 | 0 | 0.0 | 1.6 | 0.00 | 0.00 | 0.00 | 53 | |
| 20260503045003 | 14 | 0 | 0.0 | 1.6 | 0.00 | 0.00 | 0.00 | 54 | |
| 20260503044003 | 14 | 360 | 0.0 | 1.6 | 0.00 | 0.00 | 0.00 | 54 | |
| 20260503043004 | 14 | 360 | 0.0 | 0.0 | 0.00 | 0.00 | 0.00 | 54 | |
| 20260503042002 | 15 | 360 | 0.0 | 1.6 | 0.00 | 0.00 | 0.00 | 54 | |
| 20260503041002 | 14 | 360 | 0.0 | 1.6 | 0.00 | 0.00 | 0.00 | 54 | |
| 20260503040003 | 15 | 360 | 0.0 | 1.6 | 0.00 | 0.00 | 0.00 | 54 | |
| 20260503035003 | 15 | 360 | 0.0 | 1.6 | 0.00 | 0.00 | 0.00 | 54 | |
| 20260503034003 | 15 | 360 | 0.0 | 1.6 | 0.00 | 0.00 | 0.00 | 55 | |
| 20260503033003 | 15 | 360 | 1.6 | 3.2 | 0.00 | 0.00 | 0.00 | 55 | |
| 20260503032003 | 16 | 360 | 1.6 | 3.2 | 0.00 | 0.00 | 0.00 | 55 | |
| 20260503031002 | 16 | 360 | 1.6 | 1.6 | 0.00 | 0.00 | 0.00 | 56 | |
| 20260503030003 | 17 | 360 | 1.6 | 1.6 | 0.00 | 0.00 | 0.00 | 56 | |
| 20260503025003 | 17 | 360 | 0.0 | 4.8 | 0.00 | 0.00 | 0.00 | 57 | |
| 20260503024003 | 18 | 360 | 1.6 | 4.8 | 0.00 | 0.00 | 0.00 | 57 | |
| 20260503023003 | 18 | 360 | 1.6 | 4.8 | 0.00 | 0.00 | 0.00 | 57 | |
| 20260503022004 | 18 | 360 | 1.6 | 3.2 | 0.00 | 0.00 | 0.00 | 58 | |
| 20260503021003 | 18 | 360 | 1.6 | 4.8 | 0.00 | 0.00 | 0.00 | 58 | |
| 20260503020004 | 18 | 360 | 0.0 | 3.2 | 0.00 | 0.00 | 0.00 | 58 | |
| 20260503015003 | 18 | 360 | 0.0 | 3.2 | 0.00 | 0.00 | 0.00 | 58 | |
| 20260503014003 | 18 | 360 | 1.6 | 4.8 | 0.00 | 0.00 | 0.00 | 58 | |
| 20260503013003 | 19 | 360 | 1.6 | 4.8 | 0.00 | 0.00 | 0.00 | 58 | |
| 20260503012003 | 19 | 360 | 0.0 | 3.2 | 0.00 | 0.00 | 0.00 | 58 | |
| 20260503011003 | 20 | 360 | 1.6 | 3.2 | 0.00 | 0.00 | 0.00 | 59 | |
| 20260503010004 | 20 | 360 | 1.6 | 6.4 | 0.00 | 0.00 | 0.00 | 59 | |
| 20260503005002 | 20 | 360 | 1.6 | 4.8 | 0.00 | 0.00 | 0.00 | 59 | |
| 20260503004003 | 20 | 360 | 1.6 | 6.4 | 0.00 | 0.00 | 0.00 | 59 | |
| 20260503003003 | 20 | 360 | 1.6 | 3.2 | 0.00 | 0.00 | 0.00 | 59 | |
| 20260503002003 | 20 | 360 | 1.6 | 4.8 | 0.00 | 0.00 | 0.00 | 59 | |
| 20260503001003 | 20 | 360 | 1.6 | 4.8 | 0.00 | 0.00 | 0.00 | 59 | |
| 20260503000002 | 21 | 360 | 3.2 | 8.0 | 0.00 | 0.00 | 0.00 | 60 | |
| 20260502235002 | 18 | 360 | 3.2 | 8.0 | 0.00 | 0.00 | 0.00 | 58 | |
| 20260502234003 | 18 | 30 | 3.2 | 3.2 | 0.00 | 0.00 | 0.00 | 57 | |
| 20260502233003 | 18 | 50 | 0.0 | 4.8 | 0.00 | 0.00 | 0.00 | 57 | |
| 20260502232003 | 18 | 40 | 0.0 | 4.8 | 0.00 | 0.00 | 0.00 | 57 | |
| 20260502231003 | 19 | 60 | 0.0 | 3.2 | 0.00 | 0.00 | 0.00 | 58 | |
| 20260502230004 | 18 | 60 | 0.0 | 3.2 | 0.00 | 0.00 | 0.00 | 58 |